Weather History for Galveston, TX

Change the Weather History Date:

Thursday, May 16, 2013

  Actual Average Record
Temperature  
Mean Temperature 75 °F 78 °F  
Max Temperature 79 °F 83 °F 90 °F (1875)
Min Temperature 71 °F 72 °F 56 °F (1945)
Degree Days  
Heating Degree Days 0 0  
Month to date heating degree days 6 0  
Since 1 July heating degree days 751 1009  
Cooling Degree Days 10 13  
Month to date cooling degree days 96 176  
Year to date cooling degree days 330 419  
Growing Degree Days 24 (Base 50)    
Moisture  
Dew Point 71 °F    
Average Humidity 91    
Maximum Humidity 100    
Minimum Humidity 82    
Precipitation  
Precipitation 0.00 in 0.09 in 2.53 in (1969)
Month to date precipitation 1.12 1.80  
Year to date precipitation 14.72 14.78  
Snow  
Snow 0.00 in - - ()
Month to date snowfall 0.0  
Since 1 July snowfall 0.0  
Snow Depth 0.00 in    
Sea Level Pressure  
Sea Level Pressure 29.91 in    
Wind  
Wind Speed 14 mph (SSE)    
Max Wind Speed 22 mph    
Max Gust Speed 26 mph    
Visibility 10 miles    
Events      
T = Trace of Precipitation, MM = Missing Value Source: NWS Daily Summary

Daily Weather History Graph

Daily Weather History Graph

Search for Another Location

Airport:

Trip Planner

Search our weather history database for the weather conditions in past years. The results will help you decide how hot, cold, wet, or windy it might be!

Date:

Astronomy

May. 16, 2013 Rise Set
Actual Time 6:26 AM CDT 8:05 PM CDT
Civil Twilight 6:00 AM CDT 8:31 PM CDT
Nautical Twilight 5:29 AM CDT 9:02 PM CDT
Astronomical Twilight 4:56 AM CDT 9:35 PM CDT
Moon 11:52 AM CDT (5/16) 12:33 AM CDT (5/16)
Length of Visible Light 14h 30m
Length of Day
13h 38m
Waxing Crescent, 36% of the Moon is Illuminated
May 16
Waxing Crescent
May 17
First Quarter
May 24
Full
May 31
Last Quarter
Jun 8
New

Hourly Weather History & Observations

Time (CDT) Temp. Dew Point Humidity Pressure Visibility Wind Dir Wind Speed Gust Speed Precip Events Conditions
12:02 AM 71.6 °F 69.8 °F 94% 29.95 in 10.0 mi SSE 20.7 mph - N/A   Scattered Clouds
12:50 AM 71.6 °F 69.8 °F 94% 29.94 in 10.0 mi SSE 18.4 mph 25.3 mph N/A   Mostly Cloudy
12:52 AM 71.1 °F 70.0 °F 96% 29.94 in 10.0 mi SSE 20.7 mph - N/A   Mostly Cloudy
1:52 AM 71.1 °F 70.0 °F 96% 29.94 in 10.0 mi South 16.1 mph - N/A   Overcast
2:28 AM 71.6 °F 69.8 °F 94% 29.94 in 10.0 mi South 13.8 mph - N/A   Overcast
2:52 AM 71.1 °F 70.0 °F 96% 29.93 in 10.0 mi South 15.0 mph - N/A   Overcast
3:05 AM 71.6 °F 69.8 °F 94% 29.91 in 10.0 mi South 16.1 mph - N/A   Overcast
3:14 AM 71.6 °F 69.8 °F 94% 29.91 in 10.0 mi SSE 18.4 mph - N/A   Overcast
3:52 AM 71.1 °F 70.0 °F 96% 29.91 in 10.0 mi SSE 18.4 mph - N/A   Overcast
4:52 AM 71.1 °F 71.1 °F 100% 29.91 in 10.0 mi SSE 11.5 mph - N/A   Overcast
5:52 AM 71.1 °F 71.1 °F 100% 29.97 in 10.0 mi Calm Calm - N/A   Overcast
6:16 AM 71.6 °F 69.8 °F 94% 29.97 in 7.0 mi Calm Calm - N/A   Overcast
6:43 AM 71.6 °F 69.8 °F 94% 29.97 in 7.0 mi Calm Calm - N/A   Overcast
6:52 AM 71.1 °F 70.0 °F 96% 29.96 in 10.0 mi SSE 4.6 mph - N/A   Overcast
7:52 AM 73.0 °F 71.1 °F 93% 29.97 in 7.0 mi ESE 5.8 mph - N/A   Overcast
8:06 AM 73.4 °F 71.6 °F 94% 29.96 in 10.0 mi ESE 8.1 mph - N/A   Overcast
8:25 AM 73.4 °F 71.6 °F 94% 29.96 in 10.0 mi SE 9.2 mph - N/A   Mostly Cloudy
8:52 AM 73.0 °F 71.1 °F 93% 29.94 in 10.0 mi SE 11.5 mph - N/A   Mostly Cloudy
9:52 AM 75.0 °F 72.0 °F 90% 29.93 in 10.0 mi SE 13.8 mph - N/A   Clear
10:52 AM 75.9 °F 72.0 °F 87% 29.93 in 10.0 mi SE 15.0 mph - N/A   Scattered Clouds
11:52 AM 77.0 °F 72.0 °F 84% 29.91 in 10.0 mi SSE 17.3 mph - N/A   Scattered Clouds
12:52 PM 77.0 °F 72.0 °F 84% 29.91 in 10.0 mi SSE 16.1 mph - N/A   Scattered Clouds
1:52 PM 78.1 °F 73.0 °F 84% 29.89 in 10.0 mi SSE 19.6 mph - N/A   Scattered Clouds
2:52 PM 77.0 °F 72.0 °F 84% 29.89 in 10.0 mi SSE 18.4 mph - N/A   Scattered Clouds
3:52 PM 77.0 °F 72.0 °F 84% 29.88 in 10.0 mi SSE 17.3 mph - N/A   Scattered Clouds
3:54 PM 77.0 °F 71.6 °F 83% 29.88 in 10.0 mi SSE 19.6 mph - N/A   Overcast
4:29 PM 75.2 °F 71.6 °F 89% 29.88 in 10.0 mi SSE 17.3 mph - N/A   Overcast
4:52 PM 75.0 °F 72.0 °F 90% 29.87 in 10.0 mi SSE 16.1 mph - N/A   Overcast
4:59 PM 75.2 °F 71.6 °F 89% 29.87 in 10.0 mi SSE 15.0 mph - N/A   Overcast
5:13 PM 75.2 °F 71.6 °F 89% 29.86 in 10.0 mi SSE 16.1 mph 21.9 mph N/A   Overcast
5:52 PM 75.0 °F 72.0 °F 90% 29.86 in 10.0 mi SSE 19.6 mph - N/A   Overcast
6:52 PM 73.9 °F 72.0 °F 93% 29.85 in 10.0 mi SSE 15.0 mph - N/A   Overcast
7:52 PM 73.0 °F 72.0 °F 96% 29.87 in 10.0 mi SSE 16.1 mph - N/A   Overcast
8:52 PM 73.0 °F 72.0 °F 96% 29.88 in 10.0 mi SSE 17.3 mph - N/A   Overcast
9:25 PM 73.4 °F 71.6 °F 94% 29.88 in 10.0 mi SSE 16.1 mph - N/A   Overcast
9:52 PM 73.0 °F 73.0 °F 100% 29.89 in 10.0 mi SSE 13.8 mph - N/A   Overcast
10:14 PM 73.4 °F 73.4 °F 100% 29.89 in 10.0 mi SSE 13.8 mph - N/A   Overcast
10:26 PM 73.4 °F 73.4 °F 100% 29.90 in 10.0 mi SSE 11.5 mph - N/A   Overcast
10:52 PM 73.0 °F 73.0 °F 100% 29.90 in 10.0 mi SSE 11.5 mph - N/A   Overcast
11:03 PM 73.4 °F 73.4 °F 100% 29.89 in 10.0 mi SSE 11.5 mph - N/A   Overcast
11:52 PM 72.0 °F 72.0 °F 100% 29.89 in 10.0 mi SSE 11.5 mph - N/A   Overcast